TECHSAT 1B (GO-32) (25397 NORAD) Tracking and Keplerian Element Data

This shows tracking and keplerian element data for the satellite.

Feedback or suggestion? Click here.




ElementValue
Catalog25397
NameTECHSAT 1B (GO-32)
Epoch Orbit36416
Epoch Day286.85170734
Epoch Year2024
RAAN255.4211
Inclination98.9386
Eccentricity0.0001714
Argument of Perigee135.6493
Mean Anonmoly224.4823
Mean Motion14.24153463
Decay Rate6.29E-06
L11 25397U 98043D 24286.85170734 .00000629 00000+0 29307-3 0 9997
L22 25397 98.9386 255.4211 0001714 135.6493 224.4823 14.24153463364163



Live tracking and technical data element details for TECHSAT 1B (GO-32) (NORAD 25397). TECHSAT 1B (GO-32) can be tracked NOW for your location showing map with azimuth and elevation plus other details from your city location.







IsCatalogInMostPopularTable: catalog: 25397, numindb: 482
Update: records affected: 1



GetName: 25397 TECHSAT 1B (GO-32)

Hit Count: updated at: Thu, 23 Jan 2025 17:36:22 GMT